Time,TemperatureF,DewpointF,PressureIn,WindDirection,WindDirectionDegrees,WindSpeedMPH,WindSpeedGustMPH,Humidity,HourlyPrecipIn,Conditions,Clouds,dailyrainin,SoftwareType,DateUTC
2013-03-31 00:11:00,55.4,54.0,29.50,SSE,166,0.0,1.0,93,0.02,,,0.00,weatherlink.com 1.10,2013-03-30 23:11:00,
2013-03-31 00:41:00,55.3,53.0,29.50,SSE,168,0.0,1.0,93,0.01,,,0.00,weatherlink.com 1.10,2013-03-30 23:41:00,
2013-03-31 00:56:00,55.1,53.0,29.50,East,82,0.0,1.0,93,0.01,,,0.01,weatherlink.com 1.10,2013-03-30 23:56:00,
2013-03-31 01:11:00,54.9,53.0,29.50,South,173,0.0,0.0,94,0.03,,,0.03,weatherlink.com 1.10,2013-03-31 00:11:00,
2013-03-31 01:26:00,54.7,53.0,29.51,SSE,162,0.0,0.0,94,0.04,,,0.04,weatherlink.com 1.10,2013-03-31 00:26:00,
2013-03-31 01:56:00,54.2,53.0,29.50,South,177,0.0,0.0,95,0.05,,,0.06,weatherlink.com 1.10,2013-03-31 00:56:00,
2013-03-31 03:11:00,54.1,53.0,29.50,South,175,0.0,0.0,95,0.04,,,0.07,weatherlink.com 1.10,2013-03-31 01:11:00,
2013-03-31 03:41:00,53.7,53.0,29.49,South,175,0.0,0.0,96,0.02,,,0.07,weatherlink.com 1.10,2013-03-31 01:41:00,
2013-03-31 03:56:00,53.6,53.0,29.50,South,175,0.0,0.0,96,0.02,,,0.07,weatherlink.com 1.10,2013-03-31 01:56:00,
2013-03-31 04:11:00,53.5,52.0,29.50,South,175,0.0,0.0,96,0.00,,,0.07,weatherlink.com 1.10,2013-03-31 02:11:00,
2013-03-31 04:26:00,53.2,52.0,29.50,South,188,0.0,0.0,96,0.00,,,0.07,weatherlink.com 1.10,2013-03-31 02:26:00,
2013-03-31 04:41:00,52.3,51.0,29.49,SSW,193,0.0,0.0,95,0.00,,,0.07,weatherlink.com 1.10,2013-03-31 02:41:00,
2013-03-31 04:56:00,51.7,50.0,29.49,South,176,0.0,0.0,95,0.00,,,0.07,weatherlink.com 1.10,2013-03-31 02:56:00,
2013-03-31 05:26:00,51.4,50.0,29.50,South,176,0.0,0.0,95,0.00,,,0.07,weatherlink.com 1.10,2013-03-31 03:26:00,
2013-03-31 05:41:00,51.6,50.0,29.50,South,179,0.0,0.0,95,0.00,,,0.07,weatherlink.com 1.10,2013-03-31 03:41:00,
2013-03-31 05:56:00,51.6,50.0,29.50,South,181,0.0,0.0,95,0.00,,,0.07,weatherlink.com 1.10,2013-03-31 03:56:00,
2013-03-31 06:11:00,51.8,51.0,29.50,South,183,0.0,0.0,95,0.00,,,0.07,weatherlink.com 1.10,2013-03-31 04:11:00,
2013-03-31 06:26:00,51.9,51.0,29.50,South,183,0.0,0.0,96,0.00,,,0.07,weatherlink.com 1.10,2013-03-31 04:26:00,
2013-03-31 06:41:00,52.2,51.0,29.50,South,180,0.0,0.0,96,0.00,,,0.07,weatherlink.com 1.10,2013-03-31 04:41:00,
2013-03-31 06:57:00,52.4,51.0,29.51,South,180,0.0,0.0,96,0.00,,,0.07,weatherlink.com 1.10,2013-03-31 04:57:00,
2013-03-31 07:11:00,52.6,52.0,29.51,South,173,0.0,0.0,96,0.00,,,0.07,weatherlink.com 1.10,2013-03-31 05:11:00,
2013-03-31 07:26:00,52.6,52.0,29.51,South,174,0.0,0.0,96,0.00,,,0.07,weatherlink.com 1.10,2013-03-31 05:26:00,
2013-03-31 07:42:00,52.9,52.0,29.51,South,181,0.0,0.0,96,0.00,,,0.07,weatherlink.com 1.10,2013-03-31 05:42:00,
2013-03-31 07:57:00,53.3,52.0,29.52,South,176,0.0,0.0,95,0.00,,,0.07,weatherlink.com 1.10,2013-03-31 05:57:00,
2013-03-31 08:12:00,53.5,52.0,29.52,SE,130,0.0,0.0,94,0.00,,,0.07,weatherlink.com 1.10,2013-03-31 06:12:00,
2013-03-31 08:27:00,54.1,53.0,29.52,South,175,0.0,0.0,94,0.00,,,0.07,weatherlink.com 1.10,2013-03-31 06:27:00,
2013-03-31 08:42:00,54.5,52.0,29.52,South,176,0.0,0.0,92,0.00,,,0.07,weatherlink.com 1.10,2013-03-31 06:42:00,
2013-03-31 08:57:00,55.2,53.0,29.53,South,176,0.0,0.0,92,0.00,,,0.07,weatherlink.com 1.10,2013-03-31 06:57:00,
2013-03-31 09:12:00,55.8,53.0,29.53,SSE,162,0.0,0.0,91,0.00,,,0.07,weatherlink.com 1.10,2013-03-31 07:12:00,
2013-03-31 09:27:00,56.5,54.0,29.53,SSE,168,0.0,0.0,90,0.00,,,0.07,weatherlink.com 1.10,2013-03-31 07:27:00,
2013-03-31 09:42:00,57.1,54.0,29.54,East,84,2.0,3.0,88,0.00,,,0.07,weatherlink.com 1.10,2013-03-31 07:42:00,
2013-03-31 09:57:00,57.2,53.0,29.55,SE,131,0.0,5.0,86,0.00,,,0.07,weatherlink.com 1.10,2013-03-31 07:57:00,
2013-03-31 10:12:00,57.7,53.0,29.55,ESE,118,0.0,5.0,84,0.00,,,0.07,weatherlink.com 1.10,2013-03-31 08:12:00,
2013-03-31 10:27:00,58.3,53.0,29.55,South,180,1.0,5.0,82,0.00,,,0.07,weatherlink.com 1.10,2013-03-31 08:27:00,
2013-03-31 10:42:00,58.9,53.0,29.55,ESE,103,0.0,3.0,80,0.00,,,0.07,weatherlink.com 1.10,2013-03-31 08:42:00,
2013-03-31 10:57:00,59.1,53.0,29.55,South,175,0.0,3.0,79,0.00,,,0.07,weatherlink.com 1.10,2013-03-31 08:57:00,
2013-03-31 11:12:00,58.7,52.0,29.55,SSE,161,0.0,6.0,78,0.00,,,0.07,weatherlink.com 1.10,2013-03-31 09:12:00,
2013-03-31 11:27:00,59.7,54.0,29.56,East,81,0.0,2.0,80,0.00,,,0.07,weatherlink.com 1.10,2013-03-31 09:27:00,
2013-03-31 11:42:00,59.5,52.0,29.57,ENE,64,0.0,4.0,75,0.00,,,0.07,weatherlink.com 1.10,2013-03-31 09:42:00,
2013-03-31 11:57:00,59.1,52.0,29.57,SSE,164,0.0,4.0,77,0.00,,,0.07,weatherlink.com 1.10,2013-03-31 09:57:00,
2013-03-31 12:12:00,59.8,52.0,29.57,East,89,0.0,4.0,75,0.00,,,0.07,weatherlink.com 1.10,2013-03-31 10:12:00,
2013-03-31 12:27:00,59.9,51.0,29.57,ENE,67,2.0,3.0,73,0.00,,,0.07,weatherlink.com 1.10,2013-03-31 10:27:00,
2013-03-31 12:42:00,59.6,51.0,29.57,South,173,0.0,5.0,74,0.00,,,0.07,weatherlink.com 1.10,2013-03-31 10:42:00,
2013-03-31 12:57:00,59.6,50.0,29.58,ENE,57,2.0,6.0,71,0.00,,,0.07,weatherlink.com 1.10,2013-03-31 10:57:00,
2013-03-31 13:12:00,60.8,52.0,29.58,ESE,122,0.0,2.0,74,0.00,,,0.07,weatherlink.com 1.10,2013-03-31 11:12:00,
2013-03-31 13:27:00,60.0,51.0,29.58,SE,134,0.0,4.0,71,0.00,,,0.07,weatherlink.com 1.10,2013-03-31 11:27:00,
2013-03-31 13:42:00,60.2,51.0,29.59,NNE,31,0.0,4.0,71,0.00,,,0.07,weatherlink.com 1.10,2013-03-31 11:42:00,
2013-03-31 13:57:00,60.1,51.0,29.59,SSE,157,0.0,3.0,71,0.00,,,0.07,weatherlink.com 1.10,2013-03-31 11:57:00,
2013-03-31 14:12:00,59.8,50.0,29.60,SSE,167,1.0,3.0,71,0.00,,,0.07,weatherlink.com 1.10,2013-03-31 12:12:00,
2013-03-31 14:27:00,60.1,50.0,29.60,ESE,119,1.0,3.0,70,0.00,,,0.07,weatherlink.com 1.10,2013-03-31 12:27:00,
2013-03-31 14:42:00,59.9,50.0,29.60,SE,129,0.0,4.0,71,0.00,,,0.07,weatherlink.com 1.10,2013-03-31 12:42:00,
2013-03-31 14:57:00,59.6,50.0,29.59,South,173,0.0,2.0,70,0.00,,,0.07,weatherlink.com 1.10,2013-03-31 12:57:00,
2013-03-31 15:12:00,59.5,50.0,29.60,East,87,1.0,2.0,71,0.00,,,0.07,weatherlink.com 1.10,2013-03-31 13:12:00,
2013-03-31 15:27:00,59.5,50.0,29.60,South,169,0.0,4.0,71,0.00,,,0.07,weatherlink.com 1.10,2013-03-31 13:27:00,
2013-03-31 15:42:00,59.2,51.0,29.60,South,181,0.0,3.0,73,0.00,,,0.07,weatherlink.com 1.10,2013-03-31 13:42:00,
2013-03-31 15:57:00,59.2,50.0,29.60,SSE,155,0.0,4.0,72,0.00,,,0.07,weatherlink.com 1.10,2013-03-31 13:57:00,
2013-03-31 16:12:00,58.5,49.0,29.60,SE,127,0.0,3.0,72,0.00,,,0.07,weatherlink.com 1.10,2013-03-31 14:12:00,
2013-03-31 16:27:00,58.7,50.0,29.60,SE,141,0.0,3.0,72,0.00,,,0.07,weatherlink.com 1.10,2013-03-31 14:27:00,
2013-03-31 16:42:00,58.4,49.0,29.59,South,186,0.0,4.0,72,0.00,,,0.07,weatherlink.com 1.10,2013-03-31 14:42:00,
2013-03-31 16:57:00,58.0,49.0,29.60,SE,145,1.0,5.0,73,0.00,,,0.07,weatherlink.com 1.10,2013-03-31 14:57:00,
2013-03-31 17:13:00,57.6,49.0,29.60,SE,135,2.0,4.0,74,0.00,,,0.07,weatherlink.com 1.10,2013-03-31 15:13:00,
2013-03-31 17:28:00,57.4,49.0,29.61,SSE,166,0.0,3.0,74,0.00,,,0.07,weatherlink.com 1.10,2013-03-31 15:28:00,
2013-03-31 17:43:00,57.5,49.0,29.61,East,93,0.0,6.0,73,0.00,,,0.07,weatherlink.com 1.10,2013-03-31 15:43:00,
2013-03-31 17:58:00,57.3,49.0,29.61,East,95,0.0,2.0,74,0.00,,,0.07,weatherlink.com 1.10,2013-03-31 15:58:00,
2013-03-31 18:13:00,57.3,49.0,29.61,South,175,0.0,4.0,74,0.00,,,0.07,weatherlink.com 1.10,2013-03-31 16:13:00,
2013-03-31 18:28:00,57.2,49.0,29.62,SE,133,0.0,2.0,75,0.00,,,0.07,weatherlink.com 1.10,2013-03-31 16:28:00,
2013-03-31 18:43:00,57.1,49.0,29.62,South,183,0.0,3.0,73,0.00,,,0.07,weatherlink.com 1.10,2013-03-31 16:43:00,
2013-03-31 18:58:00,56.9,49.0,29.62,SW,226,0.0,2.0,74,0.00,,,0.07,weatherlink.com 1.10,2013-03-31 16:58:00,
2013-03-31 19:13:00,56.6,48.0,29.63,ESE,122,1.0,1.0,74,0.00,,,0.07,weatherlink.com 1.10,2013-03-31 17:13:00,
2013-03-31 19:28:00,56.4,49.0,29.63,SE,144,1.0,3.0,75,0.00,,,0.07,weatherlink.com 1.10,2013-03-31 17:28:00,
2013-03-31 19:43:00,56.1,48.0,29.64,South,179,0.0,1.0,75,0.00,,,0.07,weatherlink.com 1.10,2013-03-31 17:43:00,
2013-03-31 19:58:00,55.7,48.0,29.64,SSE,167,0.0,1.0,76,0.00,,,0.07,weatherlink.com 1.10,2013-03-31 17:58:00,
2013-03-31 20:13:00,55.7,48.0,29.64,SSE,149,0.0,2.0,76,0.00,,,0.07,weatherlink.com 1.10,2013-03-31 18:13:00,
2013-03-31 20:28:00,55.5,48.0,29.65,South,180,0.0,1.0,77,0.00,,,0.07,weatherlink.com 1.10,2013-03-31 18:28:00,
2013-03-31 20:43:00,55.5,49.0,29.66,SSE,164,0.0,1.0,78,0.00,,,0.07,weatherlink.com 1.10,2013-03-31 18:43:00,
2013-03-31 20:58:00,55.4,48.0,29.66,SE,140,0.0,1.0,77,0.00,,,0.07,weatherlink.com 1.10,2013-03-31 18:58:00,
2013-03-31 21:13:00,55.4,49.0,29.67,ENE,78,1.0,2.0,78,0.00,,,0.07,weatherlink.com 1.10,2013-03-31 19:13:00,
2013-03-31 21:28:00,55.5,48.0,29.68,South,174,0.0,1.0,77,0.00,,,0.07,weatherlink.com 1.10,2013-03-31 19:28:00,
2013-03-31 21:43:00,55.4,48.0,29.69,SE,144,0.0,1.0,75,0.00,,,0.07,weatherlink.com 1.10,2013-03-31 19:43:00,
2013-03-31 21:58:00,55.4,48.0,29.69,SSE,164,0.0,1.0,75,0.00,,,0.07,weatherlink.com 1.10,2013-03-31 19:58:00,
2013-03-31 22:13:00,55.4,48.0,29.69,SSW,195,0.0,2.0,76,0.00,,,0.07,weatherlink.com 1.10,2013-03-31 20:13:00,
2013-03-31 22:28:00,55.4,47.0,29.70,South,183,0.0,3.0,74,0.00,,,0.07,weatherlink.com 1.10,2013-03-31 20:28:00,
2013-03-31 22:43:00,55.3,47.0,29.70,SSE,167,0.0,1.0,74,0.00,,,0.07,weatherlink.com 1.10,2013-03-31 20:43:00,
2013-03-31 22:58:00,55.3,47.0,29.70,ENE,60,0.0,2.0,74,0.00,,,0.07,weatherlink.com 1.10,2013-03-31 20:58:00,
2013-03-31 23:13:00,55.2,47.0,29.70,South,176,0.0,3.0,73,0.00,,,0.07,weatherlink.com 1.10,2013-03-31 21:13:00,
2013-03-31 23:28:00,55.2,47.0,29.70,SSE,148,0.0,1.0,73,0.00,,,0.07,weatherlink.com 1.10,2013-03-31 21:28:00,
2013-03-31 23:43:00,55.1,47.0,29.70,SE,127,0.0,1.0,74,0.00,,,0.07,weatherlink.com 1.10,2013-03-31 21:43:00,
2013-03-31 23:58:00,55.1,47.0,29.70,ENE,73,2.0,4.0,74,0.00,,,0.00,weatherlink.com 1.10,2013-03-31 21:58:00,